Date String (YYYY-MM-DD hh:mm:ss) UTC,Instrument flags,Ambient pressure (hPa),Sample flow (lpm),Bypass flow (lpm),Sample temperature (°C),Ambient temperature (°C),ASC tube jacket temperature (°C),LED temperature (°C),Box temperature (°C),Sample RH (%),Span deviation,Mass concentration (μg/m³),Mass concentration (μg/m³),Mass concentration (μg/m³)
DateTimeUTC,F1_M11,P_M11,Q1_M11,Q2_M11,T1_M11,T2_M11,T3_M11,T4_M11,T5_M11,U1_M11,ZSPAN_M11,X0_M11,X2_M11,X1_M11
2022-03-22 00:00:00,,0824.1,4.99,0.00,21.9,21.2,00.0,31.0,23.7,14.9,0000.0,0008.05,0003.61,0003.22
2022-03-22 00:01:00,,0824.1,4.99,0.00,21.9,21.2,00.0,31.0,23.6,15.0,0000.0,0007.88,0003.60,0003.21
2022-03-22 00:02:00,,0824.1,5.00,0.00,21.9,21.2,00.0,31.0,23.7,15.1,0000.0,0007.35,0003.61,0003.21
2022-03-22 00:03:00,,0824.1,5.01,0.00,21.9,21.2,00.0,31.0,23.7,15.1,0000.0,0007.46,0003.62,0003.20
2022-03-22 00:04:00,,0824.1,5.00,0.00,21.9,21.2,00.0,30.9,23.6,15.1,0000.0,0007.44,0003.60,0003.20
2022-03-22 00:05:00,,0824.1,5.00,0.00,21.9,21.2,00.0,30.9,23.6,15.3,0000.0,0007.19,0003.58,0003.20
2022-03-22 00:06:00,,0824.2,5.00,0.00,21.9,21.1,00.0,30.9,23.6,15.1,0000.0,0006.31,0003.56,0003.19
2022-03-22 00:07:00,,0824.2,5.00,0.00,21.9,21.1,00.0,30.9,23.6,15.0,0000.0,0005.92,0003.58,0003.20
2022-03-22 00:08:00,,0824.2,5.00,0.00,21.9,21.0,00.0,30.9,23.6,14.9,0000.0,0005.80,0003.55,0003.19
2022-03-22 00:09:00,,0824.2,5.00,0.00,21.8,21.0,00.0,30.9,23.5,14.8,0000.0,0005.82,0003.55,0003.19
2022-03-22 00:10:00,,0824.2,5.00,0.00,21.8,20.9,00.0,30.9,23.5,14.9,0000.0,0005.83,0003.57,0003.19
2022-03-22 00:11:00,,0824.2,5.00,0.00,21.8,20.9,00.0,30.9,23.5,14.9,0000.0,0005.50,0003.57,0003.21
2022-03-22 00:12:00,,0824.2,5.00,0.00,21.8,20.9,00.0,30.9,23.5,15.0,0000.0,0005.41,0003.57,0003.21
2022-03-22 00:13:00,,0824.1,5.00,0.00,21.8,20.9,00.0,30.9,23.5,15.1,0000.0,0005.38,0003.56,0003.21
2022-03-22 00:14:00,,0824.2,4.99,0.00,21.8,21.0,00.0,30.9,23.5,15.1,0000.0,0005.38,0003.57,0003.20
2022-03-22 00:15:00,,0824.2,4.99,0.00,21.8,21.0,00.0,30.9,23.5,15.0,0000.0,0005.34,0003.58,0003.19
2022-03-22 00:16:00,,0824.2,4.99,0.00,21.8,21.0,00.0,30.9,23.5,15.1,0000.0,0005.39,0003.57,0003.19
2022-03-22 00:17:00,,0824.3,5.01,0.00,21.8,21.1,00.0,30.9,23.5,15.2,0000.0,0005.55,0003.58,0003.19
2022-03-22 00:18:00,,0824.3,5.00,0.00,21.8,21.1,00.0,30.9,23.6,15.0,0000.0,0005.89,0003.57,0003.17
2022-03-22 00:19:00,,0824.3,5.01,0.00,21.8,21.1,00.0,30.8,23.6,15.3,0000.0,0006.19,0003.57,0003.17
2022-03-22 00:20:00,,0824.3,5.00,0.00,21.8,21.1,00.0,30.8,23.6,15.1,0000.0,0006.16,0003.54,0003.16
2022-03-22 00:21:00,,0824.3,5.00,0.00,21.8,21.1,00.0,30.8,23.5,15.3,0000.0,0006.21,0003.54,0003.15
2022-03-22 00:22:00,,0824.3,4.99,0.00,21.8,21.2,00.0,30.8,23.6,15.3,0000.0,0006.23,0003.53,0003.15
2022-03-22 00:23:00,,0824.3,5.00,0.00,21.8,21.2,00.0,30.8,23.6,15.2,0000.0,0006.14,0003.52,0003.14
2022-03-22 00:24:00,,0824.3,5.00,0.00,21.8,21.2,00.0,30.8,23.6,15.1,0000.0,0006.21,0003.52,0003.16
2022-03-22 00:25:00,,0824.3,5.00,0.00,21.8,21.2,00.0,30.8,23.6,15.1,0000.0,0006.41,0003.54,0003.18
2022-03-22 00:26:00,,0824.4,5.00,0.00,21.8,21.2,00.0,30.8,23.7,15.1,0000.0,0006.59,0003.56,0003.19
2022-03-22 00:27:00,,0824.4,5.00,0.00,21.9,21.2,00.0,30.8,23.7,15.0,0000.0,0007.52,0003.58,0003.20
2022-03-22 00:28:00,,0824.4,5.00,0.00,21.9,21.3,00.0,30.8,23.7,14.9,0000.0,0007.40,0003.59,0003.21
2022-03-22 00:29:00,,0824.4,4.99,0.00,21.9,21.3,00.0,30.9,23.7,15.0,0000.0,0007.11,0003.59,0003.22
2022-03-22 00:30:00,,0824.4,5.01,0.00,21.9,21.3,00.0,30.9,23.7,15.0,0000.0,0007.22,0003.64,0003.24
2022-03-22 00:31:00,,0824.3,5.00,0.00,21.9,21.2,00.0,30.9,23.6,15.0,0000.0,0007.60,0003.69,0003.25
2022-03-22 00:32:00,,0824.4,5.01,0.00,21.9,21.2,00.0,30.9,23.6,15.0,0000.0,0007.96,0003.74,0003.26
2022-03-22 00:33:00,,0824.4,5.00,0.00,21.9,21.2,00.0,30.9,23.6,15.0,0000.0,0009.05,0003.75,0003.28
2022-03-22 00:34:00,,0824.4,5.01,0.00,21.9,21.2,00.0,30.9,23.6,15.1,0000.0,0009.35,0003.75,0003.29
2022-03-22 00:35:00,,0824.4,5.00,0.00,21.9,21.2,00.0,30.9,23.6,15.1,0000.0,0009.28,0003.76,0003.29
2022-03-22 00:36:00,,0824.4,5.00,0.00,21.8,21.2,00.0,30.9,23.6,15.1,0000.0,0009.09,0003.73,0003.28
2022-03-22 00:37:00,,0824.4,5.01,0.00,21.8,21.2,00.0,30.9,23.6,15.0,0000.0,0009.09,0003.75,0003.29
2022-03-22 00:38:00,,0824.4,5.00,0.00,21.8,21.2,00.0,30.9,23.6,15.1,0000.0,0008.55,0003.76,0003.30
2022-03-22 00:39:00,,0824.4,4.99,0.00,21.8,21.2,00.0,30.9,23.6,15.2,0000.0,0009.33,0003.78,0003.31
2022-03-22 00:40:00,,0824.4,5.00,0.00,21.8,21.2,00.0,30.9,23.6,14.9,0000.0,0009.29,0003.77,0003.31
2022-03-22 00:41:00,,0824.4,4.99,0.00,21.8,21.2,00.0,30.8,23.6,15.0,0000.0,0009.12,0003.75,0003.32
2022-03-22 00:42:00,,0824.6,5.00,0.00,21.8,21.2,00.0,30.8,23.6,14.8,0000.0,0008.82,0003.74,0003.32
2022-03-22 00:43:00,,0824.5,5.00,0.00,21.8,21.2,00.0,30.8,23.6,14.8,0000.0,0008.45,0003.69,0003.31
2022-03-22 00:44:00,,0824.7,5.00,0.00,21.8,21.2,00.0,30.8,23.6,15.0,0000.0,0007.22,0003.69,0003.31
2022-03-22 00:45:00,,0824.5,5.00,0.00,21.8,21.1,00.0,30.8,23.5,15.2,0000.0,0006.91,0003.69,0003.31
2022-03-22 00:46:00,,0824.5,4.99,0.00,21.8,21.1,00.0,30.8,23.5,15.2,0000.0,0007.35,0003.72,0003.32
2022-03-22 00:47:00,,0824.5,5.00,0.00,21.8,21.1,00.0,30.8,23.5,15.3,0000.0,0007.63,0003.77,0003.32
2022-03-22 00:48:00,,0824.6,5.00,0.00,21.8,21.1,00.0,30.8,23.5,15.3,0000.0,0007.63,0003.78,0003.32
2022-03-22 00:49:00,,0824.6,5.00,0.00,21.8,21.1,00.0,30.8,23.5,15.4,0000.0,0007.50,0003.76,0003.31
2022-03-22 00:50:00,,0824.6,5.01,0.00,21.7,21.1,00.0,30.8,23.5,15.6,0000.0,0006.53,0003.74,0003.30
2022-03-22 00:51:00,,0824.6,5.00,0.00,21.7,21.1,00.0,30.8,23.5,15.0,0000.0,0006.45,0003.72,0003.30
2022-03-22 00:52:00,,0824.6,5.00,0.00,21.7,21.1,00.0,30.8,23.5,14.9,0000.0,0006.46,0003.72,0003.30
2022-03-22 00:53:00,,0824.6,5.00,0.00,21.8,21.1,00.0,30.8,23.5,15.1,0000.0,0006.57,0003.73,0003.31
2022-03-22 00:54:00,,0824.6,4.98,0.00,21.8,21.1,00.0,30.8,23.5,15.3,0000.0,0006.82,0003.75,0003.31
2022-03-22 00:55:00,,0824.7,5.02,0.00,21.8,21.1,00.0,30.8,23.6,15.2,0000.0,0006.76,0003.74,0003.31
2022-03-22 00:56:00,,0824.7,4.99,0.00,21.8,21.1,00.0,30.8,23.6,15.1,0000.0,0006.82,0003.74,0003.31
2022-03-22 00:57:00,,0824.7,5.00,0.00,21.8,21.1,00.0,30.8,23.6,15.0,0000.0,0006.79,0003.71,0003.31
2022-03-22 00:58:00,,0824.8,5.00,0.00,21.8,21.1,00.0,30.8,23.6,15.3,0000.0,0007.69,0003.67,0003.30
2022-03-22 00:59:00,,0824.9,5.00,0.00,21.8,21.1,00.0,30.8,23.6,15.5,0000.0,0007.76,0003.64,0003.29
